Location: Poughquag
(41.6090°N, 73.6820°W)
Time: 16:29:59
(UTC-04:00)

N. Korean satellite - Visible Passes

Search period start: 25 September 2017 00:00
Search period end: 05 October 2017 00:00
Orbit: 461 x 516 km, 97.2° (Epoch: 24 September)

Date Brightness Start Highest point End Pass type
(mag) Time Alt. Az. Time Alt. Az. Time Alt. Az.
26 Sep 10.1 20:11:53 10° WSW 20:13:20 12° W 20:14:47 10° WNW visible
27 Sep 9.4 19:46:59 10° SSW 19:49:57 22° W 19:52:54 10° NW visible
28 Sep 8.1 19:23:04 10° S 19:26:38 42° W 19:30:09 10° NNW visible
30 Sep 10.2 20:12:41 10° WSW 20:13:57 11° W 20:15:11 10° WNW visible
01 Oct 9.4 19:47:39 10° SW 19:50:31 21° W 19:53:24 10° NW visible
02 Oct 8.1 19:23:42 10° S 19:27:12 41° W 19:30:40 10° NNW visible
03 Oct 6.7 19:00:15 10° SSE 19:03:56 85° WSW 19:07:34 10° NNW visible
04 Oct 10.2 20:13:28 10° WSW 20:14:29 11° W 20:15:29 10° WNW visible
